This is the latest recevied weather packets stored in our database for station/object KA7EII-13. If no packets are shown the sender has not sent any weather packets the latest 10 day(s).
| Time | Temp. | Humidity | Pressure | Rain* | Wind** | Luminosity | Snow |
|---|---|---|---|---|---|---|---|
| 1777959183 | 13.33° C | 48% | 1097.7 hPa | 0 mm | - | 0 W/m² | - |
| 1777958880 | 13.89° C | 48% | 1097.8 hPa | 0 mm | - | 0 W/m² | - |
| 1777958577 | 13.89° C | 47% | 1097.6 hPa | 0 mm | - | 0 W/m² | - |
| 1777958274 | 13.89° C | 46% | 1097.8 hPa | 0 mm | - | 0 W/m² | - |
| 1777957972 | 13.89° C | 46% | 1097.6 hPa | 0 mm | - | 0 W/m² | - |
| 1777957670 | 14.44° C | 45% | 1097.6 hPa | 0 mm | - | 0 W/m² | - |
| 1777957368 | 14.44° C | 45% | 1097.6 hPa | 0 mm | - | 0 W/m² | - |
| 1777957063 | 14.44° C | 45% | 1097.8 hPa | 0 mm | - | 0 W/m² | - |
| 1777956761 | 15° C | 44% | 1097.8 hPa | 0 mm | - | 0 W/m² | - |
| 1777956458 | 15° C | 43% | 1097.6 hPa | 0 mm | - | 0 W/m² | - |
| 1777956155 | 15° C | 43% | 1097.6 hPa | 0 mm | - | 0 W/m² | - |
| 1777955851 | 15.56° C | 42% | 1097.5 hPa | 0 mm | - | 0 W/m² | - |
| 1777955548 | 15.56° C | 41% | 1097.6 hPa | 0 mm | - | 0 W/m² | - |
| 1777955244 | 15.56° C | 39% | 1097.5 hPa | 0 mm | - | 0 W/m² | - |
| 1777954941 | 16.11° C | 38% | 1097.5 hPa | 0 mm | - | 0 W/m² | - |
| 1777954638 | 16.67° C | 36% | 1097.2 hPa | 0 mm | - | 0 W/m² | - |
| 1777954335 | 16.67° C | 35% | 1097.3 hPa | 0 mm | - | 0 W/m² | - |
| 1777954032 | 16.67° C | 34% | 1096.8 hPa | 0 mm | - | 0 W/m² | - |
| 1777953729 | 17.22° C | 34% | 1096.8 hPa | 0 mm | - | 0 W/m² | - |
| 1777953426 | 17.22° C | 33% | 1097 hPa | 0 mm | - | 0 W/m² | - |
| 1777953122 | 17.22° C | 33% | 1096.7 hPa | 0 mm | - | 0 W/m² | - |
| 1777952819 | 17.78° C | 34% | 1096.7 hPa | 0 mm | - | 0 W/m² | - |
| 1777952516 | 17.22° C | 34% | 1096.9 hPa | 0 mm | - | 0 W/m² | - |
| 1777952212 | 17.22° C | 33% | 1096.7 hPa | 0 mm | - | 0 W/m² | - |
| 1777951910 | 17.22° C | 33% | 1096.6 hPa | 0 mm | - | 0 W/m² | - |
* Rain latest hour (hover to see other rain measurements)
** Current wind speed in m/s (hover to see current wind gust speed)